COSMOS 567

Satellite information

Favourite Embed

Satellite Type and Status

PAYLOADIN ORBIT

Key statistics

Satellite COSMOS 567 at a glance.

Uptime

19133

Days in orbit

Revolutions

≈ 12.5

Per day

Orbit

LEO

Low Earth Orbit

Inclination

74.0

Latest

Satellite identification and parameters

Extended collection of information and parameters for COSMOS 567.

Object identification

Identified? True

Debris? False

Object name: COSMOS 567

International designator: 1973-037D

Object number (NORAD): 6678

Object ID (CCSDS): 6678

Country: COMMONWEALTH OF INDEPENDENT STATES (CIS)

Current information (Y/N): Y

RCS size: MEDIUM

Orbital parameters

Period: 114.823 minutes

Inclination: 74.0181 deg

SMA: 7825.518 km

Apoapsis: 1483.139 km

Periapsis: 1411.626 km

RAAN: 72.399 deg

Eccentricy: 0.00456923

Argument of periapsis: 333.555 deg

Mean anomaly: 135.8083 deg

Mean motion: 12.54102798 rev/day

Mean motion (dot): -0.00000004 rev/day2

B* drag term: 0.000078795276 1/REarth

Two-line elements (TLE)

Creation date: Oct. 26, 2025, 2:54 a.m.

Reference frame: TEME

Reference center: EARTH

Epoch: Oct. 25, 2025, 7:16 p.m. UTC

TLE line 0: 0 COSMOS 567

TLE line 1: 1 06678U 73037D 25298.80323142 -.00000004 00000-0 78795-4 0 9991

TLE line 2: 2 06678 74.0181 72.3990 0045692 333.5550 135.8083 12.54102798397949

Live tracking on map

Real-time ground track for satellite COSMOS 567.

In-orbit conjunctions

A list of the most updated potential collisions computed for object COSMOS 567.

Target Orbit TCA Probability of collision Miss distance Type
DELTA 1 DEB SSO 2025-01-23 17:23:02 0.0003615591 239.0 (m) DEBRIS

Associated space launch

Military communications satellites

COSMOS 567 was lifted into orbit during the mission ‘Kosmos-3M | Strela-1M 41-48’, on board a Kosmos-3M space rocket.

The launch took place on June 8, 1973, 3:50 p.m. from 132/1 (132L).

For more information about the launch, click the button.

Launch to space Kosmos-3M | Strela-1M 41-48
Kosmos-3M | Strela-1M 41-48

Agency: N/A

Status: Launch Successful

Launch date: June 8, 1973, 3:50 p.m. UTC

Rocket: Kosmos-3M

Launch pad: 132/1 (132L)

Location: Plesetsk Cosmodrome, Russian Federation

...

Latest news about this satellite

There are no fresh news available about this satellite. Check back as we update our databases every day.


Newsletter sign-up

Weekly statistics, charts and insights to help you stay on top of the space industry.